When you browse on this site, cookies collect data to enhance your experience and personalize the content and advertising you see.
Visit our Privacy Policy to learn more. By continuing to use the site, you agree to this use of cookies and data.
  • In Hungary
  • List of Countries
  • For 7 days
  • Water Temperature
  • Weather Map
  • News
  • Weather Widgets
  • user-avatar
    Login

    Hourly Weather Rudovo

    Today, 21 August, Wednesday

    Time Temperature Precipitation Wind Pressure Humidity
    00:00 +18°C° 0 mm 0 mps 746 mmHg 65%
    01:00 +18°C° 0 mm 0 mps 746 mmHg 66%
    02:00 +17°C° 0 mm 0 mps 747 mmHg 68%
    03:00 +19°C° 0 mm 1 mps 747 mmHg 70%
    04:00 +19°C° 0 mm 1 mps 747 mmHg 71%
    05:00 +19°C° 0 mm 1 mps 747 mmHg 73%
    06:00 +21°C° 0 mm 1 mps 747 mmHg 70%
    07:00 +22°C° 0 mm 1 mps 747 mmHg 66%
    08:00 +24°C° 0 mm 1 mps 747 mmHg 62%
    09:00 +25°C° 0 mm 1 mps 747 mmHg 59%
    10:00 +26°C° 0 mm 2 mps 747 mmHg 56%
    11:00 +27°C° 0 mm 2 mps 747 mmHg 53%
    12:00 +28°C° 0 mm 2 mps 747 mmHg 52%
    13:00 +28°C° 0 mm 2 mps 747 mmHg 51%
    14:00 +29°C° 0 mm 2 mps 746 mmHg 50%
    15:00 +29°C° 0 mm 2 mps 746 mmHg 53%
    16:00 +28°C° 0 mm 2 mps 746 mmHg 57%
    17:00 +28°C° 0 mm 2 mps 745 mmHg 60%
    18:00 +26°C° 0 mm 2 mps 745 mmHg 64%
    19:00 +24°C° 0 mm 2 mps 745 mmHg 69%
    20:00 +23°C° 0 mm 2 mps 745 mmHg 73%
    21:00 +21°C° 0 mm 2 mps 745 mmHg 75%
    22:00 +21°C° 0 mm 2 mps 745 mmHg 77%
    23:00 +21°C° 0 mm 1 mps 745 mmHg 79%

    Tomorrow, 22 August, Thursday

    Time Temperature Precipitation Wind Pressure Humidity
    00:00 +21°C° 0 mm 1 mps 745 mmHg 80%
    01:00 +20°C° 0 mm 1 mps 745 mmHg 82%
    02:00 +20°C° 0 mm 1 mps 745 mmHg 83%
    03:00 +20°C° 0 mm 1 mps 745 mmHg 84%
    04:00 +19°C° 0 mm 1 mps 744 mmHg 85%
    05:00 +19°C° 0 mm 1 mps 744 mmHg 86%
    06:00 +21°C° 0 mm 1 mps 744 mmHg 81%
    07:00 +22°C° 0 mm 1 mps 744 mmHg 75%
    08:00 +24°C° 0 mm 1 mps 744 mmHg 69%
    09:00 +25°C° 0 mm 1 mps 744 mmHg 64%
    10:00 +27°C° 0 mm 1 mps 744 mmHg 60%
    11:00 +28°C° 0 mm 1 mps 744 mmHg 55%
    12:00 +28°C° 0 mm 1 mps 744 mmHg 54%
    13:00 +28°C° 0 mm 1 mps 744 mmHg 52%
    14:00 +29°C° 0 mm 1 mps 744 mmHg 51%
    15:00 +29°C° 0 mm 1 mps 744 mmHg 54%
    16:00 +28°C° 0 mm 1 mps 744 mmHg 58%
    17:00 +28°C° 0 mm 1 mps 744 mmHg 61%
    18:00 +26°C° 0.1 mm 3 mps 744 mmHg 70%
    19:00 +23°C° 0.1 mm 4 mps 745 mmHg 78%
    20:00 +21°C° 0.1 mm 5 mps 745 mmHg 86%
    21:00 +20°C° 0.1 mm 5 mps 745 mmHg 88%
    22:00 +19°C° 0.1 mm 5 mps 745 mmHg 90%
    23:00 +17°C° 0.1 mm 5 mps 746 mmHg 92%

    Day after tomorrow, 23 August, Friday

    Time Temperature Precipitation Wind Pressure Humidity
    00:00 +17°C° 0 mm 5 mps 746 mmHg 91%
    01:00 +17°C° 0 mm 5 mps 746 mmHg 91%
    02:00 +16°C° 0 mm 5 mps 746 mmHg 90%
    03:00 +16°C° 0.2 mm 5 mps 746 mmHg 90%
    04:00 +15°C° 0.2 mm 5 mps 746 mmHg 90%
    05:00 +15°C° 0.2 mm 4 mps 746 mmHg 90%
    06:00 +15°C° 0.5 mm 5 mps 746 mmHg 88%
    07:00 +16°C° 0.5 mm 5 mps 747 mmHg 86%
    08:00 +17°C° 0.5 mm 5 mps 747 mmHg 84%
    09:00 +19°C° 0.7 mm 5 mps 747 mmHg 81%
    10:00 +19°C° 0.7 mm 5 mps 747 mmHg 79%
    11:00 +20°C° 0.7 mm 5 mps 747 mmHg 76%
    12:00 +21°C° 0.7 mm 5 mps 747 mmHg 74%
    13:00 +21°C° 0.7 mm 5 mps 747 mmHg 72%
    14:00 +21°C° 0.7 mm 5 mps 747 mmHg 71%
    15:00 +21°C° 0.3 mm 4 mps 747 mmHg 72%
    16:00 +21°C° 0.3 mm 4 mps 747 mmHg 73%
    17:00 +20°C° 0.3 mm 4 mps 747 mmHg 74%
    18:00 +19°C° 0 mm 4 mps 747 mmHg 77%
    19:00 +18°C° 0 mm 3 mps 747 mmHg 80%
    20:00 +17°C° 0 mm 3 mps 747 mmHg 83%
    21:00 +16°C° 0 mm 3 mps 747 mmHg 83%
    22:00 +16°C° 0 mm 3 mps 748 mmHg 84%
    23:00 +14°C° 0 mm 3 mps 748 mmHg 84%

    24 August, Saturday

    Time Temperature Precipitation Wind Pressure Humidity
    00:00 +14°C° 0 mm 3 mps 748 mmHg 85%
    01:00 +13°C° 0 mm 3 mps 748 mmHg 86%
    02:00 +13°C° 0 mm 3 mps 748 mmHg 87%
    03:00 +12°C° 0 mm 3 mps 748 mmHg 88%
    04:00 +12°C° 0 mm 3 mps 748 mmHg 89%
    05:00 +12°C° 0 mm 3 mps 748 mmHg 90%
    06:00 +13°C° 0 mm 3 mps 748 mmHg 84%
    07:00 +16°C° 0 mm 3 mps 748 mmHg 78%
    08:00 +18°C° 0 mm 3 mps 748 mmHg 73%
    09:00 +19°C° 0 mm 3 mps 748 mmHg 65%
    10:00 +21°C° 0 mm 3 mps 749 mmHg 58%
    11:00 +22°C° 0 mm 3 mps 749 mmHg 51%
    12:00 +22°C° 0 mm 3 mps 748 mmHg 49%
    13:00 +24°C° 0 mm 2 mps 748 mmHg 46%
    14:00 +25°C° 0 mm 2 mps 748 mmHg 43%
    15:00 +24°C° 0 mm 2 mps 748 mmHg 47%
    16:00 +24°C° 0 mm 2 mps 747 mmHg 50%
    17:00 +23°C° 0 mm 2 mps 747 mmHg 54%
    18:00 +20°C° 0 mm 2 mps 747 mmHg 57%
    19:00 +20°C° 0 mm 1 mps 747 mmHg 60%
    20:00 +18°C° 0 mm 1 mps 747 mmHg 64%
    21:00 +16°C° 0 mm 1 mps 747 mmHg 66%
    22:00 +16°C° 0 mm 1 mps 747 mmHg 68%
    23:00 +15°C° 0 mm 1 mps 747 mmHg 69%

    25 August, Sunday

    Time Temperature Precipitation Wind Pressure Humidity
    00:00 +15°C° 0 mm 1 mps 747 mmHg 70%
    01:00 +15°C° 0 mm 1 mps 747 mmHg 71%
    02:00 +14°C° 0 mm 1 mps 746 mmHg 72%
    03:00 +14°C° 0 mm 1 mps 746 mmHg 73%
    04:00 +14°C° 0 mm 1 mps 746 mmHg 74%
    05:00 +14°C° 0 mm 1 mps 746 mmHg 75%
    06:00 +15°C° 0 mm 1 mps 746 mmHg 71%
    07:00 +18°C° 0 mm 1 mps 746 mmHg 66%
    08:00 +20°C° 0 mm 1 mps 746 mmHg 62%
    09:00 +21°C° 0 mm 1 mps 746 mmHg 59%
    10:00 +21°C° 0 mm 2 mps 746 mmHg 55%
    11:00 +23°C° 0 mm 2 mps 746 mmHg 52%
    12:00 +24°C° 0 mm 2 mps 746 mmHg 50%
    13:00 +24°C° 0 mm 2 mps 746 mmHg 49%
    14:00 +25°C° 0 mm 2 mps 746 mmHg 47%
    15:00 +25°C° 0 mm 2 mps 746 mmHg 51%
    16:00 +24°C° 0 mm 2 mps 745 mmHg 56%
    17:00 +24°C° 0 mm 2 mps 745 mmHg 60%
    18:00 +21°C° 0 mm 2 mps 745 mmHg 65%
    19:00 +19°C° 0 mm 2 mps 745 mmHg 70%
    20:00 +18°C° 0 mm 2 mps 746 mmHg 75%
    21:00 +17°C° 0 mm 3 mps 746 mmHg 80%
    22:00 +17°C° 0 mm 3 mps 746 mmHg 86%
    23:00 +16°C° 0 mm 3 mps 747 mmHg 91%

    26 August, Monday

    Time Temperature Precipitation Wind Pressure Humidity
    00:00 +14°C° 0 mm 3 mps 747 mmHg 92%
    01:00 +14°C° 0 mm 3 mps 747 mmHg 93%
    02:00 +13°C° 0 mm 3 mps 747 mmHg 94%
    03:00 +13°C° 0 mm 3 mps 747 mmHg 93%
    04:00 +12°C° 0 mm 3 mps 748 mmHg 93%
    05:00 +12°C° 0 mm 3 mps 748 mmHg 92%
    06:00 +13°C° 0 mm 3 mps 748 mmHg 86%
    07:00 +15°C° 0 mm 4 mps 749 mmHg 79%
    08:00 +17°C° 0 mm 4 mps 749 mmHg 73%
    09:00 +18°C° 0 mm 4 mps 749 mmHg 66%
    10:00 +19°C° 0 mm 4 mps 749 mmHg 60%
    11:00 +21°C° 0 mm 4 mps 750 mmHg 53%
    12:00 +21°C° 0 mm 3 mps 750 mmHg 51%
    13:00 +22°C° 0 mm 3 mps 749 mmHg 49%
    14:00 +22°C° 0 mm 3 mps 749 mmHg 47%
    15:00 +23°C° 0 mm 2 mps 749 mmHg 51%
    16:00 +21°C° 0 mm 2 mps 749 mmHg 54%
    17:00 +21°C° 0 mm 2 mps 749 mmHg 58%
    18:00 +19°C° 0 mm 2 mps 749 mmHg 61%
    19:00 +17°C° 0 mm 2 mps 749 mmHg 65%
    20:00 +16°C° 0 mm 2 mps 749 mmHg 69%
    21:00 +15°C° 0 mm 2 mps 749 mmHg 71%
    22:00 +14°C° 0 mm 2 mps 749 mmHg 73%
    23:00 +14°C° 0 mm 2 mps 750 mmHg 75%
    Show more